Weather History for Bangor, ME

Change the Weather History Date:

Saturday, December 22, 2012

  Actual Average Record
Temperature  
Mean Temperature 34 °F 22 °F  
Max Temperature 44 °F 32 °F 55 °F (1949)
Min Temperature 24 °F 13 °F -23 °F (1980)
Degree Days  
Heating Degree Days 31 43  
Month to date heating degree days 776 849  
Since 1 July heating degree days 2391 2518  
Cooling Degree Days 0 0  
Month to date cooling degree days 0 0  
Year to date cooling degree days 395 318  
Moisture  
Dew Point 32 °F    
Average Humidity 86    
Maximum Humidity 96    
Minimum Humidity 75    
Precipitation  
Precipitation 0.04 in 0.10 in 1.95 in (1969)
Month to date precipitation 3.06 2.62  
Year to date precipitation 41.77 41.07  
Snow  
Snow T in 0.50 in 13.80 in (1962)
Month to date snowfall 5.4 9.5  
Since 1 July snowfall 9.4 11.9  
Snow Depth 0.00 in    
Sea Level Pressure  
Sea Level Pressure 29.26 in    
Wind  
Wind Speed 8 mph (SW)    
Max Wind Speed 17 mph    
Max Gust Speed 28 mph    
Visibility 9 miles    
Events Rain , Snow    
T = Trace of Precipitation, MM = Missing Value Source: NWS Daily Summary

Daily Weather History Graph

Daily Weather History Graph

Search for Another Location

Airport:

Trip Planner

Search our weather history database for the weather conditions in past years. The results will help you decide how hot, cold, wet, or windy it might be!

Date:

Astronomy

Dec. 22, 2012 Rise Set
Actual Time 7:10 AM EST 3:57 PM EST
Civil Twilight 6:36 AM EST 4:31 PM EST
Nautical Twilight 5:59 AM EST 5:08 PM EST
Astronomical Twilight 5:23 AM EST 5:44 PM EST
Moon 12:20 PM EST (12/22) 1:44 AM EST (12/22)
Length of Visible Light 9h 55m
Length of Day
8h 47m
Waxing Gibbous, 73% of the Moon is Illuminated
Dec 22
Waxing Gibbous
Dec 28
Full
Jan 4
Last Quarter
Jan 11
New
Jan 18
First Quarter

Hourly Weather History & Observations

Time (EST) Temp. Windchill Dew Point Humidity Pressure Visibility Wind Dir Wind Speed Gust Speed Precip Events Conditions
12:16 AM 44.6 °F 38.8 °F 41.0 °F 87% 29.13 in 10.0 mi South 11.5 mph 17.3 mph N/A   Overcast
12:31 AM 42.8 °F 38.0 °F 41.0 °F 93% 29.14 in 10.0 mi South 8.1 mph - N/A   Overcast
12:53 AM 43.0 °F 38.2 °F 41.0 °F 93% 29.14 in 10.0 mi South 8.1 mph - N/A   Overcast
1:53 AM 42.1 °F 35.7 °F 39.0 °F 89% 29.14 in 10.0 mi South 11.5 mph - N/A   Mostly Cloudy
2:53 AM 39.9 °F 32.5 °F 37.0 °F 89% 29.14 in 5.0 mi SSE 12.7 mph - 0.01 in Rain Light Rain
3:53 AM 39.0 °F 30.6 °F 36.0 °F 89% 29.17 in 10.0 mi South 15.0 mph 21.9 mph 0.00 in   Overcast
4:24 AM 37.4 °F 30.8 °F 35.6 °F 93% 29.18 in 10.0 mi South 9.2 mph - N/A   Overcast
4:53 AM 37.9 °F 31.5 °F 34.0 °F 86% 29.19 in 10.0 mi South 9.2 mph - N/A   Overcast
5:53 AM 37.0 °F 31.6 °F 33.1 °F 86% 29.22 in 10.0 mi South 6.9 mph - N/A   Overcast
6:53 AM 36.0 °F 31.1 °F 32.0 °F 86% 29.24 in 10.0 mi South 5.8 mph - N/A   Mostly Cloudy
7:53 AM 36.0 °F 30.3 °F 32.0 °F 86% 29.25 in 10.0 mi SSW 6.9 mph - N/A   Scattered Clouds
8:53 AM 36.0 °F 30.3 °F 32.0 °F 86% 29.27 in 10.0 mi SSE 6.9 mph - N/A   Scattered Clouds
9:53 AM 37.0 °F 32.4 °F 33.1 °F 86% 29.27 in 10.0 mi South 5.8 mph - N/A   Mostly Cloudy
10:53 AM 37.9 °F 32.7 °F 33.1 °F 83% 29.25 in 10.0 mi South 6.9 mph - N/A   Mostly Cloudy
11:53 AM 39.0 °F 33.4 °F 32.0 °F 76% 29.23 in 10.0 mi SSW 8.1 mph - 0.00 in Rain Light Rain
12:19 PM 37.4 °F 30.3 °F 32.0 °F 81% 29.22 in 10.0 mi SSW 10.4 mph - 0.00 in Rain Light Rain
12:49 PM 37.4 °F 30.8 °F 33.8 °F 87% 29.22 in 10.0 mi SSW 9.2 mph - 0.00 in Rain Light Rain
12:53 PM 37.0 °F 31.6 °F 33.1 °F 86% 29.23 in 10.0 mi SSW 6.9 mph - 0.00 in Rain Light Rain
1:51 PM 37.4 °F 33.8 °F 33.8 °F 87% 29.23 in 10.0 mi South 4.6 mph - 0.00 in Rain Light Rain
1:53 PM 37.9 °F 32.7 °F 34.0 °F 86% 29.23 in 10.0 mi South 6.9 mph - 0.00 in Rain Light Rain
2:10 PM 37.4 °F 33.8 °F 33.8 °F 87% 29.23 in 5.0 mi SW 4.6 mph - 0.01 in Rain Light Rain
2:17 PM 37.4 °F 34.9 °F 33.8 °F 87% 29.23 in 5.0 mi SSW 3.5 mph - 0.01 in Rain Light Rain
2:53 PM 37.0 °F - 35.1 °F 93% 29.25 in 10.0 mi Calm Calm - 0.02 in   Overcast
3:03 PM 35.6 °F 32.8 °F 35.6 °F 100% 29.25 in 10.0 mi SW 3.5 mph - N/A   Overcast
3:08 PM 35.6 °F 32.8 °F 35.6 °F 100% 29.25 in 10.0 mi SW 3.5 mph - N/A   Overcast
3:53 PM 35.1 °F - 34.0 °F 96% 29.26 in 10.0 mi Calm Calm - N/A   Overcast
4:50 PM 35.6 °F - 33.8 °F 93% 29.28 in 10.0 mi Calm Calm - 0.00 in   Overcast
4:53 PM 35.1 °F - 34.0 °F 96% 29.29 in 9.0 mi Calm Calm - 0.00 in   Overcast
5:00 PM 35.6 °F 29.9 °F 33.8 °F 93% 29.28 in 6.0 mi WSW 6.9 mph - 0.00 in Rain Light Rain
5:51 PM 33.8 °F 29.6 °F 30.2 °F 87% 29.31 in 8.0 mi WNW 4.6 mph - 0.00 in Snow Light Snow
5:53 PM 33.1 °F 30.0 °F 30.9 °F 92% 29.32 in 8.0 mi WNW 3.5 mph - 0.00 in Snow Light Snow
6:08 PM 32.0 °F 27.5 °F 30.2 °F 93% 29.32 in 9.0 mi WNW 4.6 mph - 0.00 in Snow Light Snow
6:45 PM 30.2 °F 20.2 °F 28.4 °F 93% 29.34 in 6.0 mi WNW 12.7 mph 20.7 mph 0.01 in Snow Light Snow
6:53 PM 30.9 °F 23.5 °F 28.0 °F 89% 29.35 in 9.0 mi WNW 8.1 mph 20.7 mph 0.01 in   Overcast
7:22 PM 30.2 °F 21.3 °F 24.8 °F 80% 29.35 in 10.0 mi NW 10.4 mph - N/A   Overcast
7:53 PM 30.0 °F 23.2 °F 24.1 °F 79% 29.38 in 10.0 mi WNW 6.9 mph - N/A   Overcast
8:53 PM 28.0 °F 20.8 °F 21.0 °F 75% 29.41 in 9.0 mi WNW 6.9 mph - 0.00 in   Overcast
9:53 PM 26.1 °F 15.0 °F 18.0 °F 71% 29.44 in 5.0 mi WNW 12.7 mph 20.7 mph 0.00 in Snow Light Snow
10:53 PM 26.1 °F 17.6 °F 16.0 °F 66% 29.46 in 10.0 mi WNW 8.1 mph - 0.00 in   Overcast
11:53 PM 24.1 °F 14.4 °F 14.0 °F 65% 29.46 in 10.0 mi WNW 9.2 mph - N/A   Scattered Clouds